Location: Recife
(8.0585°S, 34.8848°W)
Time: 20:27:44
(UTC-03:00)

Hubble Space Telescope - Pass Details

Date: 02 October 2021
Orbit: 535 x 539 km, 28.5° (Epoch: 26 October)

Event Time Altitude Azimuth Distance (km) Brightness Sun altitude
Exits shadow 03:17:16 25° 37° (NE) 1,099 2.6 -27.0°
Drops below altitude 10° 03:19:08 10° 48° (NE) 1,778 3.9 -26.5°
Sets 03:21:26 0° 52° (NE) 2,665 4.9 -25.9°
